Location: ASU Dark Sky Observatory
(36.2504°N, 81.4125°W)
Time: 06:57:43
(UTC-05:00)

Amateur Radio Satellites - All Passes

Search period start: 19 December 2014 06:27
Search period end: 20 December 2014 06:27
Location: ASU Dark Sky Observatory, 36.2504°N, 81.4125°W

Satellite Date Start Highest point End Downlink Frequencies (MHz)
Time Altitude Azimuth
PRISM 19 Dec 06:30:03 06:33:52 33° 262° (W) 06:37:43 437.425
Cubesat XI-IV 19 Dec 07:18:56 07:24:03 50° 288° (WNW) 07:29:09 437.490
GONETS M04 19 Dec 07:26:51 07:34:38 34° 287° (WNW) 07:42:28
STRAND 1 19 Dec 07:31:40 07:35:48 25° 264° (W) 07:39:58 437.568
VERMONT LUNAR 19 Dec 07:44:29 07:47:58 54° 13° (NNE) 07:51:26 437.305
PHONESAT 2.4 19 Dec 07:50:05 07:53:36 48° 10° (N) 07:57:08 2401.200-2431.200
CUTE-I 19 Dec 07:53:25 07:57:38 25° 293° (WNW) 08:01:51 437.470
SO-50 19 Dec 07:54:40 07:58:37 25° 249° (WSW) 08:02:34 436.795
BRITE-PL 19 Dec 08:28:18 08:32:07 24° 96° (E) 08:36:09 437.365/2234.400
AAUSAT CUBESAT 2 19 Dec 08:49:31 08:52:38 20° 94° (E) 08:55:43 437.432
CANX-2 19 Dec 08:56:25 09:00:33 43° 99° (E) 09:04:38 2200.000
GOMX 1 19 Dec 09:02:47 09:07:16 39° 99° (E) 09:12:02 467.674
HO-68 19 Dec 09:10:54 09:17:59 62° 103° (ESE) 09:25:01 435.675
UWE-3 19 Dec 09:15:11 09:15:51 10° 91° (E) 09:16:30 435.000/436.395/437.385
TIGRISAT 19 Dec 09:17:35 09:20:08 16° 66° (ENE) 09:22:43 435.000
COMPASS 1 19 Dec 09:22:47 09:27:00 58° 100° (E) 09:31:10 437.405
VERMONT LUNAR 19 Dec 09:22:55 09:26:16 40° 209° (SSW) 09:29:36 437.305
SEEDS 19 Dec 09:26:03 09:30:21 77° 102° (ESE) 09:34:37 437.485
CUTE 1.7 + AOD 2 19 Dec 09:27:19 09:31:39 87° 283° (WNW) 09:35:57 437.475
PHONESAT 2.4 19 Dec 09:28:48 09:32:23 57° 206° (SSW) 09:35:57 2401.200-2431.200
DX 1 19 Dec 09:33:27 09:36:53 23° 96° (E) 09:40:18 434.975-435.025
DOVE 4 19 Dec 09:35:30 09:40:16 65° 101° (E) 09:45:17 437.250
POPSAT HIP 1 19 Dec 09:36:37 09:39:10 16° 67° (ENE) 09:41:42 437.405
MaSat-1 19 Dec 09:40:48 09:42:52 26° 296° (WNW) 09:44:52 437.345
UNISAT 6 19 Dec 09:44:23 09:48:12 31° 71° (ENE) 09:52:07 437.425
DELFI C3 19 Dec 09:49:12 09:53:04 39° 98° (E) 09:56:54 145.870
YUBILEINY 19 Dec 09:50:06 09:55:01 16° 65° (ENE) 09:59:53 435.215
CUSAT 1 19 Dec 09:52:45 09:55:57 54° 94° (E) 10:00:11 437.405
Oscar 11 19 Dec 09:58:06 10:02:27 62° 101° (E) 10:06:44 145.826/435.025
HUMSAT D 19 Dec 10:02:14 10:05:03 17° 94° (E) 10:07:51 437.325/437.525
DUCHIFAT 1 19 Dec 10:04:05 10:07:49 32° 72° (ENE) 10:11:34 145.980
UKube-1 19 Dec 10:05:38 10:09:53 53° 101° (E) 10:14:06 .
BRITE-PL 19 Dec 10:06:26 10:10:35 32° 288° (WNW) 10:15:01 437.365/2234.400
CUBEBUG 2 19 Dec 10:06:41 10:11:12 50° 100° (E) 10:15:48 437.445
BUGSAT 1 19 Dec 10:10:54 10:14:31 30° 72° (ENE) 10:18:06 437.445
CINEMA 3 19 Dec 10:12:43 10:17:28 85° 284° (WNW) 10:22:24 145.822/145.860
ANTELSAT 19 Dec 10:15:33 10:19:52 73° 76° (ENE) 10:24:19 437.575/2403.000
QB50P2 19 Dec 10:16:07 10:20:09 46° 74° (ENE) 10:24:12 145.880/145.840
VELOX 1 19 Dec 10:21:14 10:24:54 25° 96° (E) 10:28:34 145.980
ZACube-1 19 Dec 10:24:12 10:28:40 56° 100° (E) 10:33:10 437.345
POLYITAN 1 19 Dec 10:24:16 10:28:24 59° 75° (ENE) 10:32:33 437.675
AAUSAT CUBESAT 2 19 Dec 10:24:37 10:28:17 29° 289° (WNW) 10:31:56 437.432
NANOSAT C BR1 19 Dec 10:27:53 10:32:02 64° 75° (ENE) 10:36:12 145.865
CANX-2 19 Dec 10:33:42 10:36:05 15° 293° (WNW) 10:38:28 2200.000
DANDE 19 Dec 10:37:13 10:40:17 44° 284° (WNW) 10:44:17 436.750
GOMX 1 19 Dec 10:41:41 10:45:08 20° 291° (WNW) 10:48:45 467.674
QB50P1 19 Dec 10:41:57 10:46:10 85° 257° (WSW) 10:50:23 145.935-145.965
UWE-3 19 Dec 10:48:09 10:52:43 66° 284° (WNW) 10:57:20 435.000/436.395/437.385
FUNcube-1 19 Dec 10:51:24 10:55:55 73° 284° (WNW) 11:00:29 145.935
TIGRISAT 19 Dec 10:52:25 10:56:29 41° 261° (W) 11:00:40 435.000
O/OREOS (USA 219) 19 Dec 10:53:37 10:57:56 43° 66° (ENE) 11:02:14 437.305
HO-68 19 Dec 10:59:44 11:05:06 24° 299° (WNW) 11:10:29 435.675
COMPASS 1 19 Dec 11:01:03 11:02:10 11° 295° (WNW) 11:03:18 437.405
AISAT 19 Dec 11:02:55 11:07:22 81° 103° (ESE) 11:11:48 437.250
DX 1 19 Dec 11:09:25 11:13:03 27° 290° (WNW) 11:16:42 434.975-435.025
PHONESAT 2.4 19 Dec 11:09:40 11:10:34 11° 219° (SW) 11:11:29 2401.200-2431.200
POPSAT HIP 1 19 Dec 11:10:50 11:14:44 37° 262° (W) 11:18:39 437.405
RS-15 19 Dec 11:14:42 11:24:35 40° 108° (ESE) 11:34:21 29.354- 29.394
CUBEBUG 1 19 Dec 11:14:48 11:18:49 37° 98° (E) 11:22:49 437.445
DOVE 4 19 Dec 11:15:29 11:17:33 13° 294° (WNW) 11:19:39 437.250
UNISAT 6 19 Dec 11:21:54 11:25:02 19° 266° (W) 11:28:14 437.425
DELFI C3 19 Dec 11:25:42 11:27:59 15° 293° (WNW) 11:30:15 145.870
50 SAT 19 Dec 11:26:24 11:30:29 58° 285° (WNW) 11:34:34 437.505
HUMSAT D 19 Dec 11:36:57 11:40:55 36° 288° (WNW) 11:44:53 437.325/437.525
Oscar 11 19 Dec 11:37:03 11:38:02 11° 296° (WNW) 11:39:01 145.826/435.025
DUCHIFAT 1 19 Dec 11:40:55 11:43:43 17° 266° (W) 11:46:32 145.980
UKube-1 19 Dec 11:43:46 11:45:33 12° 295° (WNW) 11:47:20 .
YUBILEINY 19 Dec 11:44:16 11:53:01 89° 84° (E) 12:01:43 435.215
CUBEBUG 2 19 Dec 11:44:50 11:47:29 15° 293° (WNW) 11:50:09 437.445
BUGSAT 1 19 Dec 11:47:16 11:50:02 17° 265° (W) 11:52:47 437.445
ESTCUBE 1 19 Dec 11:54:07 11:58:36 71° 284° (WNW) 12:03:03 437.505/2401.250
QB50P2 19 Dec 11:54:37 11:56:17 12° 268° (W) 11:57:59 145.880/145.840
VELOX 1 19 Dec 11:57:46 12:01:22 25° 291° (WNW) 12:04:59 145.980
ZACube-1 19 Dec 12:02:28 12:04:33 13° 294° (WNW) 12:06:38 437.345
Oscar 19 19 Dec 12:22:23 12:26:41 28° 68° (ENE) 12:31:00 437.125/150
SPROUT 19 Dec 12:28:35 12:32:50 58° 101° (E) 12:37:05 437.525
TISAT 1 19 Dec 12:30:07 12:34:20 66° 101° (ESE) 12:38:32 437.305
O/OREOS (USA 219) 19 Dec 12:34:23 12:36:54 15° 261° (W) 12:39:27 437.305
ITAMSAT 1 19 Dec 12:36:51 12:39:28 14° 63° (ENE) 12:42:06 435.822/435.867
BEESAT 3 19 Dec 12:37:18 12:39:08 13° 108° (ESE) 12:40:59 437.485
SWISSCUBE 19 Dec 12:38:37 12:40:03 11° 91° (E) 12:41:28 437.505
CUBEBUG 1 19 Dec 12:52:06 12:54:52 17° 293° (WNW) 12:57:39 437.445
BEESAT 19 Dec 13:02:08 13:05:36 20° 95° (E) 13:09:03 436.000
ISS 19 Dec 13:07:07 13:09:28 18° 129° (SE) 13:11:49 145.825
BEESAT 2 19 Dec 13:13:50 13:17:26 30° 113° (ESE) 13:21:06 435.950
RS-15 19 Dec 13:25:56 13:36:31 53° 308° (NW) 13:47:12 29.354- 29.394
M-CUBED/EXP-1 PRIME 19 Dec 13:33:01 13:35:14 14° 95° (E) 13:37:22 437.505
JUGNU 19 Dec 13:34:52 13:38:09 15° 175° (S) 13:41:25 437.505
YUBILEINY 19 Dec 13:44:00 13:48:31 15° 282° (WNW) 13:53:02 435.215
PCSat 19 Dec 13:59:23 14:04:42 62° 113° (ESE) 14:10:03 145.827
Gurwin Techsat 1B 19 Dec 14:00:10 14:05:20 55° 73° (ENE) 14:10:31 435.225
Oscar 19 19 Dec 14:01:24 14:05:53 30° 263° (W) 14:10:25 437.125/150
SPROUT 19 Dec 14:07:12 14:08:24 11° 295° (WNW) 14:09:35 437.525
AIST 2 19 Dec 14:11:31 14:15:41 63° 117° (ESE) 14:19:55 435.215
BEESAT 3 19 Dec 14:12:54 14:16:51 47° 303° (WNW) 14:20:52 437.485
ITAMSAT 1 19 Dec 14:13:14 14:18:22 65° 258° (WSW) 14:23:32 435.822/435.867
ITUPSAT 1 19 Dec 14:13:25 14:18:10 70° 285° (WNW) 14:22:53 437.325
SWISSCUBE 19 Dec 14:13:34 14:18:17 63° 286° (WNW) 14:22:57 437.505
STARS 19 Dec 14:27:43 14:31:04 21° 95° (E) 14:34:24 437.465
KKS-1 19 Dec 14:27:53 14:31:54 32° 98° (E) 14:35:53 437.445
SRMSAT 19 Dec 14:36:04 14:38:58 14° 172° (S) 14:41:52 437.500
BEESAT 19 Dec 14:39:09 14:43:31 36° 289° (WNW) 14:47:51 436.000
AUBIESAT-1 19 Dec 14:41:36 14:45:57 88° 110° (ESE) 14:49:52 437.475
ISS 19 Dec 14:42:45 14:45:51 37° 324° (NW) 14:48:56 145.825
JAS-2 19 Dec 14:50:32 14:52:51 12° 58° (ENE) 14:55:07 435.910
BEESAT 2 19 Dec 14:52:28 14:55:42 22° 309° (NW) 14:58:59 435.950
HORYU 2 19 Dec 14:53:21 14:57:47 73° 75° (ENE) 15:02:16 437.375
AO-7 19 Dec 14:55:27 15:03:08 43° 64° (ENE) 15:10:50 29.400- 29.500
M-CUBED/EXP-1 PRIME 19 Dec 15:06:24 15:10:32 41° 293° (WNW) 15:14:18 437.505
JUGNU 19 Dec 15:23:09 15:26:24 15° 185° (S) 15:29:38 437.505
Gurwin Techsat 1B 19 Dec 15:42:27 15:45:35 16° 268° (W) 15:48:45 435.225
GONETS M04 19 Dec 15:44:06 15:50:06 20° 67° (ENE) 15:56:00
PCSat 19 Dec 15:44:49 15:48:31 19° 310° (NW) 15:52:16 145.827
RS-15 19 Dec 15:45:38 15:52:17 17° 337° (NNW) 15:59:02 29.354- 29.394
AIST 2 19 Dec 15:52:35 15:54:43 13° 314° (NW) 15:56:52 435.215
STARS 19 Dec 16:03:39 16:07:32 31° 289° (WNW) 16:11:25 437.465
KKS-1 19 Dec 16:05:00 16:08:18 21° 292° (WNW) 16:11:37 437.445
AIST 1 19 Dec 16:13:49 16:17:31 27° 90° (E) 16:21:11
SRMSAT 19 Dec 16:23:59 16:27:22 16° 183° (S) 16:30:44 437.500
JAS-2 19 Dec 16:29:07 16:36:47 68° 74° (ENE) 16:43:53 435.910
AO-7 19 Dec 16:48:16 16:55:51 39° 261° (W) 17:03:32 29.400- 29.500
Cubesat XI-IV 19 Dec 16:59:40 17:03:50 24° 67° (ENE) 17:08:01 437.490
MOZHAYETS 4 19 Dec 17:04:11 17:08:42 50° 99° (E) 17:13:08
CUTE-I 19 Dec 17:32:12 17:37:17 48° 72° (ENE) 17:42:22 437.470
GONETS M04 19 Dec 17:39:05 17:47:50 78° 266° (W) 17:56:29
AIST 1 19 Dec 17:51:46 17:55:07 21° 285° (WNW) 17:58:27
RS-15 19 Dec 18:05:36 18:11:25 15° 16° (NNE) 18:17:19 29.354- 29.394
STRAND 1 19 Dec 18:06:48 18:09:16 14° 92° (E) 18:11:43 437.568
SRMSAT 19 Dec 18:14:13 18:15:43 11° 193° (SSW) 18:17:14 437.500
PRISM 19 Dec 18:15:36 18:19:31 40° 99° (E) 18:23:23 437.425
JAS-2 19 Dec 18:16:28 18:22:04 22° 267° (W) 18:27:27 435.910
CUBESAT XI-V 19 Dec 18:24:19 18:28:03 24° 95° (E) 18:31:46 437.345
Cubesat XI-IV 19 Dec 18:38:43 18:43:40 39° 262° (W) 18:48:37 437.490
MOZHAYETS 4 19 Dec 18:42:58 18:45:27 15° 295° (WNW) 18:47:56
MaSat-1 19 Dec 19:13:33 19:15:57 51° 248° (WSW) 19:18:29 437.345
CUTE-I 19 Dec 19:13:55 19:17:33 19° 266° (W) 19:21:12 437.470
DANDE 19 Dec 19:36:43 19:42:05 20° 69° (ENE) 19:47:50 436.750
HO-68 19 Dec 19:36:54 19:43:16 36° 65° (ENE) 19:49:38 435.675
ISS 19 Dec 19:37:36 19:39:08 13° 24° (NNE) 19:40:40 145.825
BRITE-PL 19 Dec 19:38:24 19:41:09 17° 68° (ENE) 19:43:54 437.365/2234.400
GONETS M04 19 Dec 19:40:12 19:43:04 12° 284° (WNW) 19:45:55
AAUSAT CUBESAT 2 19 Dec 19:40:58 19:41:43 10° 65° (ENE) 19:42:28 437.432
STRAND 1 19 Dec 19:43:47 19:48:48 60° 287° (WNW) 19:53:47 437.568
CANX-2 19 Dec 19:47:39 19:51:00 23° 70° (ENE) 19:54:23 2200.000
PRISM 19 Dec 19:52:24 19:54:40 15° 294° (WNW) 19:56:56 437.425
CUBESAT XI-V 19 Dec 20:01:32 20:05:26 28° 290° (WNW) 20:09:19 437.345
GOMX 1 19 Dec 20:09:45 20:13:16 27° 71° (ENE) 20:16:47 467.674
COMPASS 1 19 Dec 20:12:17 20:15:54 28° 71° (ENE) 20:19:33 437.405
SEEDS 19 Dec 20:15:59 20:19:54 38° 73° (ENE) 20:23:51 437.485
RS-15 19 Dec 20:17:41 20:28:10 42° 48° (NE) 20:39:00 29.354- 29.394
CUTE 1.7 + AOD 2 19 Dec 20:17:47 20:21:51 47° 74° (ENE) 20:25:58 437.475
SO-50 19 Dec 20:27:12 20:30:24 19° 109° (ESE) 20:33:40 436.795
DX 1 19 Dec 20:27:47 20:30:19 15° 66° (ENE) 20:32:51 434.975-435.025
CUSAT 1 19 Dec 20:31:58 20:39:36 55° 78° (ENE) 20:47:54 437.405
DELFI C3 19 Dec 20:36:12 20:39:04 19° 69° (ENE) 20:41:57 145.870
DOVE 4 19 Dec 20:39:39 20:43:34 44° 74° (ENE) 20:47:32 437.250
Oscar 11 19 Dec 20:50:35 20:54:29 34° 72° (ENE) 20:58:26 145.826/435.025
UKube-1 19 Dec 20:58:29 21:02:21 33° 71° (ENE) 21:06:13 .
CUBEBUG 2 19 Dec 21:03:25 21:06:59 28° 71° (ENE) 21:10:37 437.445
CINEMA 3 19 Dec 21:12:36 21:16:41 63° 75° (ENE) 21:20:51 145.822/145.860
AAUSAT CUBESAT 2 19 Dec 21:12:41 21:16:49 59° 260° (W) 21:21:00 437.432
ISS 19 Dec 21:12:54 21:16:10 80° 41° (NE) 21:19:25 145.825
BRITE-PL 19 Dec 21:15:43 21:19:28 31° 262° (W) 21:23:10 437.365/2234.400
VELOX 1 19 Dec 21:17:33 21:20:30 18° 67° (ENE) 21:23:26 145.980
DANDE 19 Dec 21:18:18 21:26:07 86° 263° (W) 21:34:51 436.750
ZACube-1 19 Dec 21:18:29 21:22:08 30° 71° (ENE) 21:25:50 437.345
CANX-2 19 Dec 21:23:15 21:26:48 26° 264° (W) 21:30:23 2200.000
HO-68 19 Dec 21:24:10 21:30:48 40° 261° (W) 21:37:28 435.675
BEESAT 2 19 Dec 21:37:56 21:39:19 11° 45° (NE) 21:40:43 435.950
UWE-3 19 Dec 21:43:06 21:47:14 73° 76° (ENE) 21:51:28 435.000/436.395/437.385
FUNcube-1 19 Dec 21:45:01 21:49:07 63° 75° (ENE) 21:53:18 145.935
GOMX 1 19 Dec 21:48:26 21:51:25 19° 265° (W) 21:54:24 467.674
COMPASS 1 19 Dec 21:48:29 21:51:36 20° 266° (W) 21:54:45 437.405
SEEDS 19 Dec 21:53:22 21:55:51 15° 267° (W) 21:58:21 437.485
CUTE 1.7 + AOD 2 19 Dec 21:56:15 21:58:01 12° 268° (W) 21:59:47 437.475
AISAT 19 Dec 21:58:35 22:02:52 52° 74° (ENE) 22:07:10 437.250
DX 1 19 Dec 22:02:04 22:06:11 42° 261° (W) 22:10:18 434.975-435.025
SO-50 19 Dec 22:06:22 22:10:36 39° 306° (NW) 22:14:59 436.795
CUBEBUG 1 19 Dec 22:09:11 22:12:39 24° 69° (ENE) 22:16:07 437.445
DELFI C3 19 Dec 22:10:30 22:14:06 30° 263° (W) 22:17:45 145.870
ANTELSAT 19 Dec 22:11:11 22:14:40 20° 94° (E) 22:18:09 437.575/2403.000
50 SAT 19 Dec 22:12:04 22:16:00 59° 75° (ENE) 22:19:59 437.505
POLYITAN 1 19 Dec 22:14:49 22:16:32 12° 92° (E) 22:18:15 437.675
CUSAT 1 19 Dec 22:15:39 22:22:23 32° 271° (W) 22:29:33 437.405
NANOSAT C BR1 19 Dec 22:17:44 22:19:41 13° 93° (E) 22:21:39 145.865
DOVE 4 19 Dec 22:20:08 22:21:36 12° 268° (W) 22:23:05 437.250
HUMSAT D 19 Dec 22:26:19 22:30:25 71° 259° (WSW) 22:34:35 437.325/437.525
Oscar 11 19 Dec 22:27:50 22:30:43 17° 266° (W) 22:33:38 145.826/435.025
RS-15 19 Dec 22:29:55 22:40:55 58° 248° (WSW) 22:52:25 29.354- 29.394
QB50P1 19 Dec 22:31:00 22:34:03 19° 95° (E) 22:37:05 145.935-145.965
BEESAT 3 19 Dec 22:35:01 22:39:02 44° 57° (ENE) 22:42:58 437.485
UKube-1 19 Dec 22:35:31 22:38:33 19° 265° (W) 22:41:35 .
AIST 2 19 Dec 22:36:39 22:39:55 21° 50° (NE) 22:43:09 435.215
CUBEBUG 2 19 Dec 22:40:41 22:43:42 19° 266° (W) 22:46:46 437.445
TIGRISAT 19 Dec 22:46:29 22:51:03 48° 99° (E) 22:55:36 435.000
YUBILEINY 19 Dec 22:48:31 22:54:20 20° 80° (E) 23:00:07 435.215
PCSat 19 Dec 22:50:18 22:54:59 29° 54° (NE) 22:59:39 145.827
ESTCUBE 1 19 Dec 22:51:04 22:55:36 77° 76° (ENE) 23:00:09 437.505/2401.250
VELOX 1 19 Dec 22:52:41 22:56:46 37° 262° (W) 23:00:53 145.980
ZACube-1 19 Dec 22:55:38 22:58:32 18° 266° (W) 23:01:29 437.345
POPSAT HIP 1 19 Dec 22:58:45 23:02:47 40° 99° (E) 23:06:49 437.405
DANDE 19 Dec 23:04:17 23:08:49 16° 276° (W) 23:13:35 436.750
BEESAT 2 19 Dec 23:13:54 23:18:05 75° 242° (WSW) 23:22:11 435.950
UNISAT 6 19 Dec 23:15:01 23:19:45 80° 284° (WNW) 23:24:28 437.425
TISAT 1 19 Dec 23:20:28 23:24:16 34° 72° (ENE) 23:28:05 437.305
SPROUT 19 Dec 23:20:40 23:24:28 32° 72° (ENE) 23:28:16 437.525
DUCHIFAT 1 19 Dec 23:27:06 23:31:22 90° 284° (WNW) 23:35:38 145.980
BUGSAT 1 19 Dec 23:30:50 23:34:54 80° 102° (ESE) 23:38:58 437.445
AISAT 19 Dec 23:38:08 23:39:46 12° 268° (W) 23:41:24 437.250
QB50P2 19 Dec 23:40:00 23:44:13 61° 285° (WNW) 23:48:26 145.880/145.840
SWISSCUBE 19 Dec 23:43:52 23:45:04 11° 62° (ENE) 23:46:16 437.505
CUBEBUG 1 19 Dec 23:45:13 23:48:53 26° 264° (W) 23:52:34 437.445
ANTELSAT 19 Dec 23:47:13 23:51:30 36° 289° (WNW) 23:55:48 437.575/2403.000
POLYITAN 1 19 Dec 23:48:34 23:52:42 48° 286° (WNW) 23:56:50 437.675
NANOSAT C BR1 19 Dec 23:51:42 23:55:45 45° 287° (WNW) 23:59:49 145.865
QB50P1 20 Dec 00:06:12 00:09:56 31° 289° (WNW) 00:13:41 145.935-145.965
BEESAT 20 Dec 00:06:48 00:10:02 18° 66° (ENE) 00:13:15 436.000
BEESAT 3 20 Dec 00:14:38 00:16:47 14° 252° (WSW) 00:18:55 437.485
AIST 2 20 Dec 00:14:43 00:18:37 35° 247° (WSW) 00:22:27 435.215
M-CUBED/EXP-1 PRIME 20 Dec 00:19:12 00:22:22 18° 61° (ENE) 00:25:35 437.505
TIGRISAT 20 Dec 00:24:34 00:27:22 16° 294° (WNW) 00:30:10 435.000
PCSat 20 Dec 00:33:30 00:38:24 35° 251° (WSW) 00:43:15 145.827
POPSAT HIP 1 20 Dec 00:35:51 00:38:19 15° 293° (WNW) 00:40:48 437.405
Oscar 19 20 Dec 00:38:31 00:40:15 12° 91° (E) 00:41:58 437.125/150
YUBILEINY 20 Dec 00:41:23 00:50:07 74° 278° (W) 00:58:52 435.215
TISAT 1 20 Dec 00:57:32 01:00:10 16° 266° (W) 01:02:50 437.305
SPROUT 20 Dec 00:57:38 01:00:35 18° 266° (W) 01:03:33 437.525
O/OREOS (USA 219) 20 Dec 01:02:58 01:07:26 86° 109° (ESE) 01:11:54 437.305
SWISSCUBE 20 Dec 01:17:28 01:22:15 74° 258° (WSW) 01:27:04 437.505
ITUPSAT 1 20 Dec 01:17:32 01:22:21 82° 257° (WSW) 01:27:11 437.325
STARS 20 Dec 01:23:46 01:26:03 14° 65° (ENE) 01:28:20 437.465
KKS-1 20 Dec 01:24:21 01:27:43 22° 68° (ENE) 01:31:07 437.445
AUBIESAT-1 20 Dec 01:27:05 01:31:51 78° 71° (ENE) 01:36:46 437.475
BEESAT 20 Dec 01:42:58 01:47:30 42° 261° (W) 01:52:04 436.000
M-CUBED/EXP-1 PRIME 20 Dec 01:52:15 01:56:53 52° 256° (WSW) 02:01:42 437.505
VERMONT LUNAR 20 Dec 02:11:16 02:13:28 16° 144° (SE) 02:15:40 437.305
Oscar 19 20 Dec 02:14:51 02:20:02 71° 285° (WNW) 02:25:11 437.125/150
Gurwin Techsat 1B 20 Dec 02:19:33 02:24:01 27° 96° (E) 02:28:27 435.225
PHONESAT 2.4 20 Dec 02:21:55 02:23:26 12° 142° (SE) 02:24:58 2401.200-2431.200
ITAMSAT 1 20 Dec 02:28:46 02:33:51 55° 101° (E) 02:38:54 435.822/435.867
YUBILEINY 20 Dec 02:45:14 02:48:29 12° 298° (WNW) 02:51:44 435.215
HORYU 2 20 Dec 02:48:44 02:51:46 18° 94° (E) 02:54:48 437.375
STARS 20 Dec 02:57:54 03:02:06 47° 260° (W) 03:06:20 437.465
KKS-1 20 Dec 03:00:20 03:04:11 29° 263° (W) 03:08:03 437.445
AO-7 20 Dec 03:02:28 03:06:28 14° 91° (E) 03:10:27 29.400- 29.500
VERMONT LUNAR 20 Dec 03:47:54 03:51:26 80° 157° (SSE) 03:54:58 437.305
PHONESAT 2.4 20 Dec 03:58:05 04:01:40 64° 155° (SSE) 04:05:16 2401.200-2431.200
Gurwin Techsat 1B 20 Dec 03:59:15 04:03:57 33° 291° (WNW) 04:08:37 435.225
AIST 1 20 Dec 04:00:37 04:04:53 72° 82° (E) 04:09:07
MOZHAYETS 4 20 Dec 04:03:45 04:07:57 35° 72° (ENE) 04:12:10
ITAMSAT 1 20 Dec 04:09:43 04:12:51 16° 296° (WNW) 04:15:58 435.822/435.867
HORYU 2 20 Dec 04:24:22 04:28:32 37° 288° (WNW) 04:32:40 437.375
GONETS M04 20 Dec 04:42:13 04:48:54 25° 82° (E) 04:55:35
AO-7 20 Dec 04:51:48 05:00:13 85° 107° (ESE) 05:08:35 29.400- 29.500
SO-50 20 Dec 05:01:26 05:03:33 13° 43° (NE) 05:05:41 436.795
PRISM 20 Dec 05:04:23 05:07:41 22° 69° (ENE) 05:10:59 437.425
STRAND 1 20 Dec 05:20:16 05:23:22 17° 64° (ENE) 05:26:29 437.568
Cubesat XI-IV 20 Dec 05:22:00 05:22:58 10° 90° (E) 05:23:56 437.490
CUBESAT XI-V 20 Dec 05:25:58 05:29:13 19° 67° (ENE) 05:32:27 437.345
VERMONT LUNAR 20 Dec 05:26:33 05:29:56 42° 354° (N) 05:33:18 437.305
JAS-2 20 Dec 05:27:48 05:33:23 70° 102° (ESE) 05:38:33 435.910
PHONESAT 2.4 20 Dec 05:36:58 05:40:28 46° 351° (N) 05:43:59 2401.200-2431.200
MOZHAYETS 4 20 Dec 05:41:52 05:45:13 20° 266° (W) 05:48:36
CUTE-I 20 Dec 05:52:37 05:56:48 23° 95° (E) 06:00:58 437.470
